Find Starlink 1302

NORAD ID: 45375 Int'l Des: 2020-019 Owner: SPXS Country: US Constellation: starlink operational
LEOCIRCULAR

リアルタイム位置

3D地球を読み込み中...

Starlink 1302について

説明を読み込み中...

次回通過

Passes for default location (London). Set your location on the main map for personalized predictions.

高度履歴

Loading altitude history...

軌道要素

1 45375U 20019R 26123.83335647 .00146283 00000-0 15148-2 0 9994
2 45375 53.0473 243.6869 0003121 313.3197 321.2076 15.63743733 5985
Epoch: May 3, 2026 • Age: 10 hours

現在のステータス

高度 376.2 km
速度 7.69 km/s
衛星直下点 -2.54°S, 65.61°W
打ち上げ日 Mar 18, 2020
運用期間 6.1 years
タイプ internet

技術仕様

分類 Payload
質量 260.00 kg
乾燥質量 248.00 kg
総質量 260.00 kg
長さ 0.20 m
直径 2.80 m
スパン 9.00 m
形状 Box + pan
製造者 SPXS
バスタイプ Starlink
フェーズステータス In Orbit
所有者/国 SPXS/US

Most Searched